WO1J Weather Reports


time (UTC)temp
C
wind
direction
speed
KPH
gust
KPH
rain 1hr
cm
rain 24hr
cm
rain mn
cm
humidity
%
barometer
mb
20260506024544 17 160 3.2 8.0 0.00 0.00 0.00 72 1007.3
20260506023044 17 154 1.6 6.4 0.00 0.00 0.00 71 1007.3
20260506021510 17 192 1.6 8.0 0.00 0.00 0.00 72 1007.6
20260506020038 17 162 1.6 4.8 0.00 0.00 0.00 72 1007.5
20260506014505 17 175 0.0 6.4 0.00 0.00 0.00 71 1007.5
20260506013041 17 173 1.6 11.3 0.00 0.00 0.00 71 1007.6
20260506011608 17 190 3.2 8.0 0.00 0.00 0.00 72 1007.6
20260506010025 17 142 0.0 3.2 0.00 0.00 0.00 75 1007.5
20260506004546 17 161 1.6 9.7 0.00 0.00 0.00 77 1007.2
20260506003012 17 177 0.0 4.8 0.00 0.00 0.00 82 1007.3
20260506001532 17 288 0.0 3.2 0.00 0.00 0.00 81 1007.0
20260506000053 17 189 1.6 9.7 0.00 0.00 0.00 81 1005.9
20260505234525 18 269 3.2 8.0 0.00 0.00 0.00 80 1005.6
20260505233047 19 284 3.2 12.9 0.00 0.00 0.00 72 1006.0
20260505231512 19 296 4.8 24.1 0.00 0.00 0.00 69 1005.9
20260505230051 20 296 16.1 27.4 0.00 0.00 0.00 66 1005.9
20260505224502 20 214 4.8 16.1 0.00 0.00 0.00 60 1005.6
20260505223029 20 183 6.4 19.3 0.00 0.00 0.00 58 1003.4
20260505221555 21 159 6.4 24.1 0.00 0.00 0.00 57 1003.4
20260505220018 21 186 4.8 29.0 0.00 0.00 0.00 56 1003.2
20260505214548 21 165 12.9 37.0 0.00 0.00 0.00 54 1003.2
20260505213017 22 149 3.2 20.9 0.00 0.00 0.00 55 1003.2
20260505211542 22 172 11.3 40.2 0.00 0.00 0.00 52 1002.7
20260505210008 22 206 11.3 27.4 0.00 0.00 0.00 53 1002.8
20260505204534 22 171 11.3 35.4 0.00 0.00 0.00 53 1002.8
20260505203002 23 165 6.4 24.1 0.00 0.00 0.00 52 1002.9
20260505201520 23 126 8.0 24.1 0.00 0.00 0.00 53 1002.9
20260505200042 23 226 11.3 30.6 0.00 0.00 0.00 52 1003.1
20260505194510 23 141 16.1 35.4 0.00 0.00 0.00 50 1003.2
20260505193037 24 188 12.9 30.6 0.00 0.00 0.00 50 1003.4
20260505191503 24 188 11.3 33.8 0.00 0.00 0.00 49 1003.6
20260505190027 24 155 14.5 29.0 0.00 0.00 0.00 49 1004.0
20260505184554 23 215 6.4 24.1 0.00 0.00 0.00 52 1004.2
20260505183022 23 187 6.4 25.7 0.00 0.00 0.00 52 1004.3
20260505181551 24 175 12.9 29.0 0.00 0.00 0.00 51 1004.2
20260505180018 23 140 11.3 25.7 0.00 0.00 0.00 54 1004.4
20260505174549 24 173 11.3 35.4 0.00 0.00 0.00 52 1004.3
20260505173032 26 201 8.0 24.1 0.00 0.00 0.00 48 1004.5
20260505171537 26 155 8.0 22.5 0.00 0.00 0.00 46 1004.9
20260505170002 25 165 6.4 19.3 0.00 0.00 0.00 44 1005.3
20260505164545 25 223 6.4 14.5 0.00 0.00 0.00 45 1005.5
20260505163054 25 128 6.4 20.9 0.00 0.00 0.00 47 1005.9
20260505161501 24 250 6.4 14.5 0.00 0.00 0.00 48 1006.0
20260505153012 22 313 4.8 17.7 0.00 0.00 0.00 51 1007.0
20260505151542 22 322 6.4 17.7 0.00 0.00 0.00 52 1007.2
20260505124518 16 276 1.6 14.5 0.00 0.00 0.00 64 1007.5
20260505123037 15 181 6.4 14.5 0.00 0.00 0.00 64 1007.3
20260505121547 15 199 3.2 16.1 0.00 0.00 0.00 66 1007.4
20260505120006 13 214 6.4 14.5 0.00 0.00 0.00 67 1007.6
20260505114540 13 158 1.6 11.3 0.00 0.00 0.00 70 1007.7
20260505113002 12 205 1.6 9.7 0.00 0.00 0.00 72 1007.6
20260505111533 12 184 1.6 11.3 0.00 0.00 0.00 73 1007.8
20260505110105 11 157 3.2 12.9 0.00 0.00 0.00 75 1007.7
20260505101522 10 161 0.0 4.8 0.00 0.00 0.00 76 1007.8
20260505100055 10 156 1.6 8.0 0.00 0.00 0.00 76 1007.7
20260505094517 10 170 1.6 8.0 0.00 0.00 0.00 75 1007.8
20260505093043 10 134 3.2 8.0 0.00 0.00 0.00 74 1007.8
20260505091507 10 139 1.6 8.0 0.00 0.00 0.00 73 1007.9
20260505090048 11 154 1.6 9.7 0.00 0.00 0.00 71 1007.8
20260505084554 11 163 1.6 6.4 0.00 0.00 0.00 70 1008.0
20260505083032 11 150 3.2 8.0 0.00 0.00 0.00 69 1008.0
20260505081558 12 162 1.6 8.0 0.00 0.00 0.00 68 1008.2
20260505080014 12 188 1.6 4.8 0.00 0.00 0.00 67 1008.2
20260505074550 12 186 1.6 4.8 0.00 0.00 0.00 68 1008.2
20260505073005 12 185 3.2 6.4 0.00 0.00 0.00 68 1008.2
20260505071535 11 164 1.6 6.4 0.00 0.00 0.00 68 1008.0
20260505070100 12 146 3.2 8.0 0.00 0.00 0.00 68 1008.1
20260505064524 12 128 1.6 6.4 0.00 0.00 0.00 67 1008.2
20260505063056 12 166 1.6 3.2 0.00 0.00 0.00 65 1008.1
20260505061522 13 240 0.0 6.4 0.00 0.00 0.00 64 1008.1
20260505060030 13 223 0.0 9.7 0.00 0.00 0.00 63 1008.1
20260505054616 13 196 3.2 11.3 0.00 0.00 0.00 62 1008.1
20260505053020 13 202 3.2 16.1 0.00 0.00 0.00 62 1008.1
20260505051549 13 208 3.2 11.3 0.00 0.00 0.00 61 1008.0
20260505041519 14 205 1.6 11.3 0.00 0.00 0.00 60 1007.7
20260505040044 14 216 4.8 11.3 0.00 0.00 0.00 59 1007.6
20260505034514 14 241 3.2 11.3 0.00 0.00 0.00 59 1007.5
20260505033047 13 217 3.2 12.9 0.00 0.00 0.00 60 1007.5
20260505031507 12 169 3.2 11.3 0.00 0.00 0.00 63 1007.4
20260505030037 12 155 3.2 9.7 0.00 0.00 0.00 63 1007.3